ROMMA est une association bénévole à but non lucratif. Votre soutien est indispensable : ADHERER à ROMMA ou FAIRE un DON

Voiron - (38, Isère)

Voironnais (300 m)   Longitude: 05° 35' E   Latitude: 45° 23' N Station partenaire n°109
 

Détail journalier du     <<     >>

Température Precipitation Humidité Pression Vent Dir Rafale Dir. rafale Ensol.
Heure (°C) (mm) (%) (hPa) (km/h) (km/h) (min)
01:00 15.407610143ESE18SSE0
02:00 15.007810133ESE11ESE0
03:00 13.808210132ESE6ESE0
04:00 13.208410131SO6SO0
05:00 12.508610131SO5SO0
06:00 11.808610131SO3SO0
07:00 12.3085101305SO0
08:00 15.307510121NE6NE60
09:00 16.107110112S10SSO60
10:00 17.306610116S15SSE60
11:00 19.105910105S13S60
12:00 21.705310104N11S60
13:00 24.104410106SE26SSO60
14:00 25.7037101014SO37SO60
15:00 26.8033101115SO39SO60
16:00 27.6032101115OSO37O60
17:00 27.1036101315OSO37SO60
18:00 20.6050101619N52N0
19:00 19.604910187NO19NO0
20:00 19.105110186NO16N0
21:00 18.005410198ENE23ENE0
22:00 17.805410208ENE23E0
23:00 15.21.67810235NNO15N0
minuit 13.71.48310234ENE29ENE0

Graphique du 07-06-2019

 

Serveur OMMA